Starlink 32294

operational
NORAD ID: 61675 Int'l Des: 2024-193 Owner: SPXS Country: US Constellation: starlink
LEOCIRCULAR

About Starlink 32294

Description loading...

Live Position

Loading 3D Globe...

Upcoming Passes

Altitude History

Altitude vs Time

uPlot chart will show altitude changes over time

Two-Line Element Set

1 61675U 24193Q 25304.26112831 -.00000846 00000-0 -16442-4 0 9993
2 61675 53.1614 331.9690 0001397 98.0968 262.0192 15.30190733 56711
Epoch: Oct 31, 2025 • Age: 13 hours

Current Status

Altitude 478.1 km
Velocity 7.63 km/s
Sub-Earth Point 40.55°N, 139.16°E
Launch Date Oct 26, 2024
Age 1 years
Type internet

Technical Details

Classification Payload
Mass 730.00 kg
Dry Mass 700.00 kg
Total Mass 730.00 kg
Length 0.30 m
Diameter 4.10 m
Span 29.00 m
Shape Box + pan
Manufacturer SPXS
Bus Type Starlink V2M
Phase Status In Orbit
Owner/State SPXS/US

Large Constellations

Loading constellations...